Time,TemperatureF,DewpointF,PressureIn,WindDirection,WindDirectionDegrees,WindSpeedMPH,WindSpeedGustMPH,Humidity,HourlyPrecipIn,Conditions,Clouds,dailyrainin,SoftwareType,DateUTC
2013-03-28 00:00:00,29.3,6.6,30.43,NW,315,0.0,0.0,37,0.00,,,0.00,meteohub,2013-03-28 04:00:00,
2013-03-28 00:02:00,29.3,6.6,30.43,NW,315,0.0,0.0,37,0.00,,,0.00,meteohub,2013-03-28 04:02:00,
2013-03-28 00:07:00,29.3,6.6,30.43,NW,315,0.0,0.0,37,0.00,,,0.00,meteohub,2013-03-28 04:07:00,
2013-03-28 00:12:00,28.9,6.8,30.43,NW,315,0.0,0.0,38,0.00,,,0.00,meteohub,2013-03-28 04:12:00,
2013-03-28 00:17:00,28.9,6.8,30.43,NW,315,0.0,0.0,38,0.00,,,0.00,meteohub,2013-03-28 04:17:00,
2013-03-28 00:22:00,28.8,7.3,30.43,NW,315,0.0,0.0,39,0.00,,,0.00,meteohub,2013-03-28 04:22:00,
2013-03-28 00:27:00,28.8,7.3,30.43,NW,315,0.0,0.0,39,0.00,,,0.00,meteohub,2013-03-28 04:27:00,
2013-03-28 00:32:00,28.6,7.2,30.43,NW,315,0.0,0.0,39,0.00,,,0.00,meteohub,2013-03-28 04:32:00,
2013-03-28 00:37:00,28.4,7.0,30.43,NW,315,0.0,0.0,39,0.00,,,0.00,meteohub,2013-03-28 04:37:00,
2013-03-28 00:42:00,28.4,7.5,30.43,NW,315,0.0,0.0,40,0.00,,,0.00,meteohub,2013-03-28 04:42:00,
2013-03-28 00:47:00,28.4,8.1,30.42,NW,315,0.0,0.0,41,0.00,,,0.00,meteohub,2013-03-28 04:47:00,
2013-03-28 00:52:00,28.4,8.1,30.43,NW,315,0.0,0.0,41,0.00,,,0.00,meteohub,2013-03-28 04:52:00,
2013-03-28 00:57:00,28.4,8.6,30.43,NW,315,0.0,0.0,42,0.00,,,0.00,meteohub,2013-03-28 04:57:00,
2013-03-28 01:02:00,28.6,8.8,30.43,NW,315,0.0,0.0,42,0.00,,,0.00,meteohub,2013-03-28 05:02:00,
2013-03-28 01:07:00,28.6,8.8,30.42,NW,315,0.0,0.0,42,0.00,,,0.00,meteohub,2013-03-28 05:07:00,
2013-03-28 01:12:00,28.2,7.9,30.43,NW,315,0.0,0.0,41,0.00,,,0.00,meteohub,2013-03-28 05:12:00,
2013-03-28 01:17:00,28.0,7.7,30.43,NW,315,0.0,0.0,41,0.00,,,0.00,meteohub,2013-03-28 05:17:00,
2013-03-28 01:22:00,27.9,8.1,30.43,NW,315,0.0,0.0,42,0.00,,,0.00,meteohub,2013-03-28 05:22:00,
2013-03-28 01:27:00,27.9,8.1,30.42,NW,315,0.0,0.0,42,0.00,,,0.00,meteohub,2013-03-28 05:27:00,
2013-03-28 01:32:00,27.9,8.1,30.42,NW,315,0.0,0.0,42,0.00,,,0.00,meteohub,2013-03-28 05:32:00,
2013-03-28 01:37:00,27.9,8.6,30.42,NW,315,0.0,0.0,43,0.00,,,0.00,meteohub,2013-03-28 05:37:00,
2013-03-28 01:42:00,27.7,8.4,30.43,NW,315,0.0,0.0,43,0.00,,,0.00,meteohub,2013-03-28 05:42:00,
2013-03-28 01:47:00,27.7,8.4,30.43,NW,315,0.0,0.0,43,0.00,,,0.00,meteohub,2013-03-28 05:47:00,
2013-03-28 01:52:00,27.7,9.0,30.43,NW,315,0.0,0.0,44,0.00,,,0.00,meteohub,2013-03-28 05:52:00,
2013-03-28 01:57:00,27.5,8.8,30.43,NW,315,0.0,0.0,44,0.00,,,0.00,meteohub,2013-03-28 05:57:00,
2013-03-28 02:02:00,27.5,8.8,30.43,NW,315,0.0,0.0,44,0.00,,,0.00,meteohub,2013-03-28 06:02:00,
2013-03-28 02:07:00,27.5,8.8,30.43,NW,315,0.0,0.0,44,0.00,,,0.00,meteohub,2013-03-28 06:07:00,
2013-03-28 02:12:00,27.5,8.8,30.43,NW,315,0.0,0.0,44,0.00,,,0.00,meteohub,2013-03-28 06:12:00,
2013-03-28 02:17:00,27.3,8.6,30.42,NW,315,0.0,0.0,44,0.00,,,0.00,meteohub,2013-03-28 06:17:00,
2013-03-28 02:22:00,27.3,8.6,30.43,NW,315,0.0,0.0,44,0.00,,,0.00,meteohub,2013-03-28 06:22:00,
2013-03-28 02:27:00,27.1,8.4,30.43,NW,315,0.0,0.0,44,0.00,,,0.00,meteohub,2013-03-28 06:27:00,
2013-03-28 02:32:00,27.1,8.4,30.43,NW,315,0.0,0.0,44,0.00,,,0.00,meteohub,2013-03-28 06:32:00,
2013-03-28 02:37:00,27.0,8.2,30.43,NW,315,0.0,0.0,44,0.00,,,0.00,meteohub,2013-03-28 06:37:00,
2013-03-28 02:42:00,27.0,8.2,30.43,NW,315,0.0,0.0,44,0.00,,,0.00,meteohub,2013-03-28 06:42:00,
2013-03-28 02:48:00,27.0,8.8,30.43,NW,315,0.0,0.0,45,0.00,,,0.00,meteohub,2013-03-28 06:48:00,
2013-03-28 02:53:00,27.0,8.8,30.43,NW,315,0.0,0.0,45,0.00,,,0.00,meteohub,2013-03-28 06:53:00,
2013-03-28 02:58:00,27.0,8.8,30.43,NW,315,0.0,1.0,45,0.00,,,0.00,meteohub,2013-03-28 06:58:00,
2013-03-28 03:03:00,26.8,8.6,30.43,NW,315,0.0,1.0,45,0.00,,,0.00,meteohub,2013-03-28 07:03:00,
2013-03-28 03:08:00,26.8,8.6,30.43,NW,315,0.0,1.0,45,0.00,,,0.00,meteohub,2013-03-28 07:08:00,
2013-03-28 03:13:00,26.6,8.4,30.43,NW,315,0.0,0.0,45,0.00,,,0.00,meteohub,2013-03-28 07:13:00,
2013-03-28 03:18:00,26.6,8.4,30.43,NW,315,0.0,0.0,45,0.00,,,0.00,meteohub,2013-03-28 07:18:00,
2013-03-28 03:24:00,26.6,9.0,30.43,NW,315,0.0,0.0,46,0.00,,,0.00,meteohub,2013-03-28 07:24:00,
2013-03-28 03:29:00,26.6,9.0,30.43,NW,315,0.0,0.0,46,0.00,,,0.00,meteohub,2013-03-28 07:29:00,
2013-03-28 03:34:00,26.4,8.8,30.43,NW,315,0.0,0.0,46,0.00,,,0.00,meteohub,2013-03-28 07:34:00,
2013-03-28 03:39:00,26.4,8.8,30.43,NW,315,0.0,0.0,46,0.00,,,0.00,meteohub,2013-03-28 07:39:00,
2013-03-28 03:44:00,26.4,8.8,30.42,NW,315,0.0,0.0,46,0.00,,,0.00,meteohub,2013-03-28 07:44:00,
2013-03-28 03:49:00,26.2,8.6,30.42,NW,315,0.0,0.0,46,0.00,,,0.00,meteohub,2013-03-28 07:49:00,
2013-03-28 03:54:00,26.1,8.4,30.43,NW,315,0.0,0.0,46,0.00,,,0.00,meteohub,2013-03-28 07:54:00,
2013-03-28 03:59:00,26.1,8.2,30.43,NW,315,0.0,0.0,46,0.00,,,0.00,meteohub,2013-03-28 07:59:00,
2013-03-28 04:04:00,26.1,8.2,30.43,NW,315,0.0,0.0,46,0.00,,,0.00,meteohub,2013-03-28 08:04:00,
2013-03-28 04:09:00,25.9,8.1,30.43,NW,315,0.0,0.0,46,0.00,,,0.00,meteohub,2013-03-28 08:09:00,
2013-03-28 04:14:00,25.7,8.1,30.43,NW,315,0.0,0.0,46,0.00,,,0.00,meteohub,2013-03-28 08:14:00,
2013-03-28 04:19:00,25.9,8.1,30.43,NW,315,0.0,0.0,46,0.00,,,0.00,meteohub,2013-03-28 08:19:00,
2013-03-28 04:24:00,25.9,8.1,30.43,NW,315,0.0,0.0,46,0.00,,,0.00,meteohub,2013-03-28 08:24:00,
2013-03-28 04:29:00,25.9,8.6,30.43,NW,315,0.0,0.0,47,0.00,,,0.00,meteohub,2013-03-28 08:29:00,
2013-03-28 04:35:00,25.9,8.6,30.43,NW,315,0.0,0.0,47,0.00,,,0.00,meteohub,2013-03-28 08:35:00,
2013-03-28 04:40:00,25.7,8.4,30.43,NW,315,0.0,0.0,47,0.00,,,0.00,meteohub,2013-03-28 08:40:00,
2013-03-28 04:45:00,25.7,8.4,30.43,NW,315,0.0,0.0,47,0.00,,,0.00,meteohub,2013-03-28 08:45:00,
2013-03-28 04:50:00,25.5,8.2,30.43,NW,315,0.0,0.0,47,0.00,,,0.00,meteohub,2013-03-28 08:50:00,
2013-03-28 04:55:00,25.5,8.2,30.43,NW,315,0.0,0.0,47,0.00,,,0.00,meteohub,2013-03-28 08:55:00,
2013-03-28 05:00:00,25.3,8.1,30.43,NW,315,0.0,0.0,47,0.00,,,0.00,meteohub,2013-03-28 09:00:00,
2013-03-28 05:05:00,25.3,8.1,30.43,NW,315,0.0,0.0,47,0.00,,,0.00,meteohub,2013-03-28 09:05:00,
2013-03-28 05:10:00,25.5,8.8,30.43,NW,315,0.0,0.0,48,0.00,,,0.00,meteohub,2013-03-28 09:10:00,
2013-03-28 05:15:00,25.3,8.6,30.43,NW,315,0.0,0.0,48,0.00,,,0.00,meteohub,2013-03-28 09:15:00,
2013-03-28 05:20:00,25.2,8.4,30.43,NW,315,0.0,0.0,48,0.00,,,0.00,meteohub,2013-03-28 09:20:00,
2013-03-28 05:25:00,25.2,8.4,30.44,NW,315,2.0,0.0,48,0.00,,,0.00,meteohub,2013-03-28 09:25:00,
2013-03-28 05:30:00,25.2,8.4,30.44,NW,315,0.0,0.0,48,0.00,,,0.00,meteohub,2013-03-28 09:30:00,
2013-03-28 05:36:00,25.2,8.4,30.44,NW,315,0.0,2.0,48,0.00,,,0.00,meteohub,2013-03-28 09:36:00,
2013-03-28 05:41:00,25.0,8.2,30.44,NW,315,0.0,1.0,48,0.00,,,0.00,meteohub,2013-03-28 09:41:00,
2013-03-28 05:46:00,25.2,8.4,30.44,NW,315,0.0,2.0,48,0.00,,,0.00,meteohub,2013-03-28 09:46:00,
2013-03-28 05:51:00,25.2,8.4,30.44,NW,315,0.0,2.0,48,0.00,,,0.00,meteohub,2013-03-28 09:51:00,
2013-03-28 05:56:00,25.2,8.4,30.45,NW,315,0.0,2.0,48,0.00,,,0.00,meteohub,2013-03-28 09:56:00,
2013-03-28 06:01:00,25.2,8.4,30.45,NW,315,0.0,0.0,48,0.00,,,0.00,meteohub,2013-03-28 10:01:00,
2013-03-28 06:07:00,25.2,8.4,30.45,NW,315,0.0,0.0,48,0.00,,,0.00,meteohub,2013-03-28 10:07:00,
2013-03-28 06:12:00,25.0,8.2,30.45,NW,315,0.0,0.0,48,0.00,,,0.00,meteohub,2013-03-28 10:12:00,
2013-03-28 06:17:00,24.6,7.9,30.45,NW,315,0.0,0.0,48,0.00,,,0.00,meteohub,2013-03-28 10:17:00,
2013-03-28 06:22:00,24.4,7.7,30.45,NW,315,0.0,0.0,48,0.00,,,0.00,meteohub,2013-03-28 10:22:00,
2013-03-28 06:27:00,24.3,7.5,30.46,NW,315,0.0,0.0,48,0.00,,,0.00,meteohub,2013-03-28 10:27:00,
2013-03-28 06:32:00,24.4,7.7,30.46,NW,315,0.0,0.0,48,0.00,,,0.00,meteohub,2013-03-28 10:32:00,
2013-03-28 06:37:00,24.4,8.2,30.46,NW,315,0.0,0.0,49,0.00,,,0.00,meteohub,2013-03-28 10:37:00,
2013-03-28 06:42:00,24.4,8.2,30.46,NW,315,0.0,1.0,49,0.00,,,0.00,meteohub,2013-03-28 10:42:00,
2013-03-28 06:47:00,24.4,8.2,30.47,NW,315,0.0,1.0,49,0.00,,,0.00,meteohub,2013-03-28 10:47:00,
2013-03-28 06:52:00,24.3,8.1,30.46,NW,315,1.0,0.0,49,0.00,,,0.00,meteohub,2013-03-28 10:52:00,
2013-03-28 06:57:00,24.4,8.2,30.47,NW,315,0.0,2.0,49,0.00,,,0.00,meteohub,2013-03-28 10:57:00,
2013-03-28 07:02:00,24.3,8.1,30.47,NW,315,0.0,2.0,49,0.00,,,0.00,meteohub,2013-03-28 11:02:00,
2013-03-28 07:07:00,24.3,8.1,30.47,NW,315,0.0,2.0,49,0.00,,,0.00,meteohub,2013-03-28 11:07:00,
2013-03-28 07:12:00,24.1,7.9,30.48,NW,315,0.0,0.0,49,0.00,,,0.00,meteohub,2013-03-28 11:12:00,
2013-03-28 07:17:00,24.1,7.9,30.48,NW,315,0.0,0.0,49,0.00,,,0.00,meteohub,2013-03-28 11:17:00,
2013-03-28 07:22:00,24.3,8.1,30.48,NW,315,0.0,0.0,49,0.00,,,0.00,meteohub,2013-03-28 11:22:00,
2013-03-28 07:27:00,24.3,8.1,30.47,NW,315,0.0,2.0,49,0.00,,,0.00,meteohub,2013-03-28 11:27:00,
2013-03-28 07:32:00,24.1,7.9,30.48,NW,315,0.0,2.0,49,0.00,,,0.00,meteohub,2013-03-28 11:32:00,
2013-03-28 07:37:00,24.1,7.9,30.48,NW,315,0.0,2.0,49,0.00,,,0.00,meteohub,2013-03-28 11:37:00,
2013-03-28 07:42:00,24.1,7.9,30.48,NW,315,0.0,0.0,49,0.00,,,0.00,meteohub,2013-03-28 11:42:00,
2013-03-28 07:47:00,24.1,7.9,30.48,NW,315,0.0,0.0,49,0.00,,,0.00,meteohub,2013-03-28 11:47:00,
2013-03-28 07:52:00,24.3,8.1,30.48,NW,315,0.0,0.0,49,0.00,,,0.00,meteohub,2013-03-28 11:52:00,
2013-03-28 07:57:00,24.4,8.2,30.48,NW,315,0.0,0.0,49,0.00,,,0.00,meteohub,2013-03-28 11:57:00,
2013-03-28 08:02:00,24.8,8.6,30.48,NW,315,0.0,0.0,49,0.00,,,0.00,meteohub,2013-03-28 12:02:00,
2013-03-28 08:07:00,25.9,10.0,30.48,NW,315,0.0,0.0,50,0.00,,,0.00,meteohub,2013-03-28 12:07:00,
2013-03-28 08:12:00,27.0,11.7,30.48,NW,315,0.0,0.0,51,0.00,,,0.00,meteohub,2013-03-28 12:12:00,
2013-03-28 08:17:00,27.9,12.4,30.48,East,90,2.0,0.0,51,0.00,,,0.00,meteohub,2013-03-28 12:17:00,
2013-03-28 08:22:00,27.9,12.4,30.48,East,90,2.0,2.0,51,0.00,,,0.00,meteohub,2013-03-28 12:22:00,
2013-03-28 08:27:00,28.0,10.2,30.48,East,90,2.0,2.0,46,0.00,,,0.00,meteohub,2013-03-28 12:27:00,
2013-03-28 08:32:00,28.8,10.9,30.47,SE,135,2.0,2.0,46,0.00,,,0.00,meteohub,2013-03-28 12:32:00,
2013-03-28 08:37:00,29.5,11.1,30.47,SE,135,2.0,2.0,45,0.00,,,0.00,meteohub,2013-03-28 12:37:00,
2013-03-28 08:42:00,30.4,12.0,30.47,SE,135,2.0,2.0,45,0.00,,,0.00,meteohub,2013-03-28 12:42:00,
2013-03-28 08:47:00,31.3,11.7,30.47,SE,135,2.0,2.0,43,0.00,,,0.00,meteohub,2013-03-28 12:47:00,
2013-03-28 08:53:00,31.8,10.6,30.46,SE,135,2.0,2.0,40,0.00,,,0.00,meteohub,2013-03-28 12:53:00,
2013-03-28 08:58:00,32.4,10.6,30.46,East,90,1.0,2.0,39,0.00,,,0.00,meteohub,2013-03-28 12:58:00,
2013-03-28 09:03:00,32.7,10.8,30.47,East,90,0.0,2.0,39,0.00,,,0.00,meteohub,2013-03-28 13:03:00,
2013-03-28 09:08:00,35.1,12.9,30.47,East,90,0.0,2.0,39,0.00,,,0.00,meteohub,2013-03-28 13:08:00,
2013-03-28 09:13:00,35.8,11.8,30.46,NE,45,0.0,2.0,36,0.00,,,0.00,meteohub,2013-03-28 13:13:00,
2013-03-28 09:18:00,36.7,12.0,30.46,NE,45,0.0,2.0,35,0.00,,,0.00,meteohub,2013-03-28 13:18:00,
2013-03-28 09:23:00,37.6,11.5,30.47,East,90,2.0,2.0,33,0.00,,,0.00,meteohub,2013-03-28 13:23:00,
2013-03-28 09:28:00,39.4,12.6,30.45,East,90,0.0,2.0,32,0.00,,,0.00,meteohub,2013-03-28 13:28:00,
2013-03-28 09:33:00,41.4,13.5,30.45,East,90,1.0,2.0,31,0.00,,,0.00,meteohub,2013-03-28 13:33:00,
2013-03-28 09:38:00,43.0,10.9,30.45,East,90,2.0,2.0,26,0.00,,,0.00,meteohub,2013-03-28 13:38:00,
2013-03-28 09:43:00,44.4,7.3,30.45,East,90,2.0,2.0,21,0.00,,,0.00,meteohub,2013-03-28 13:43:00,
2013-03-28 09:48:00,45.7,3.9,30.44,East,90,2.0,2.0,17,0.00,,,0.00,meteohub,2013-03-28 13:48:00,
2013-03-28 09:54:00,46.6,0.5,30.44,SE,135,3.0,3.0,14,0.00,,,0.00,meteohub,2013-03-28 13:54:00,
2013-03-28 09:59:00,48.0,-5.3,30.44,NW,315,4.0,4.0,10,0.00,,,0.00,meteohub,2013-03-28 13:59:00,
2013-03-28 10:04:00,48.0,48.0,30.44,NW,315,4.0,4.0,0,0.00,,,0.00,meteohub,2013-03-28 14:04:00,
2013-03-28 10:09:00,48.9,48.9,30.44,West,270,4.0,4.0,0,0.00,,,0.00,meteohub,2013-03-28 14:09:00,
2013-03-28 10:14:00,49.6,49.6,30.44,West,270,4.0,4.0,0,0.00,,,0.00,meteohub,2013-03-28 14:14:00,
2013-03-28 10:19:00,50.9,50.9,30.44,West,270,3.0,5.0,0,0.00,,,0.00,meteohub,2013-03-28 14:19:00,
2013-03-28 10:24:00,52.2,52.2,30.43,SW,225,4.0,5.0,0,0.00,,,0.00,meteohub,2013-03-28 14:24:00,
2013-03-28 10:29:00,52.9,52.9,30.43,West,270,2.0,5.0,0,0.00,,,0.00,meteohub,2013-03-28 14:29:00,
2013-03-28 10:34:00,53.6,53.6,30.43,NW,315,4.0,4.0,0,0.00,,,0.00,meteohub,2013-03-28 14:34:00,
2013-03-28 10:39:00,54.3,54.3,30.42,South,180,2.0,4.0,0,0.00,,,0.00,meteohub,2013-03-28 14:39:00,
2013-03-28 10:44:00,55.2,55.2,30.42,SW,225,5.0,5.0,0,0.00,,,0.00,meteohub,2013-03-28 14:44:00,
2013-03-28 10:49:00,54.3,54.3,30.42,West,270,4.0,5.0,0,0.00,,,0.00,meteohub,2013-03-28 14:49:00,
2013-03-28 10:54:00,55.4,55.4,30.42,South,180,3.0,6.0,0,0.00,,,0.00,meteohub,2013-03-28 14:54:00,
2013-03-28 10:59:00,55.9,55.9,30.42,SE,135,3.0,6.0,0,0.00,,,0.00,meteohub,2013-03-28 14:59:00,
2013-03-28 11:04:00,55.9,55.9,30.42,SE,135,3.0,6.0,0,0.00,,,0.00,meteohub,2013-03-28 15:04:00,
2013-03-28 11:09:00,56.3,56.3,30.42,West,270,4.0,4.0,0,0.00,,,0.00,meteohub,2013-03-28 15:09:00,
2013-03-28 11:14:00,55.9,55.9,30.42,WSW,248,7.0,7.0,0,0.00,,,0.00,meteohub,2013-03-28 15:14:00,
2013-03-28 11:19:00,55.6,55.6,30.42,South,180,2.0,6.0,0,0.00,,,0.00,meteohub,2013-03-28 15:19:00,
2013-03-28 11:25:00,55.6,55.6,30.42,SW,225,3.0,7.0,0,0.00,,,0.00,meteohub,2013-03-28 15:25:00,
2013-03-28 11:30:00,56.7,56.7,30.42,East,90,6.0,7.0,0,0.00,,,0.00,meteohub,2013-03-28 15:30:00,
2013-03-28 11:35:00,55.9,55.9,30.42,North,0,7.0,7.0,0,0.00,,,0.00,meteohub,2013-03-28 15:35:00,
2013-03-28 11:40:00,55.2,55.2,30.42,NW,315,6.0,6.0,0,0.00,,,0.00,meteohub,2013-03-28 15:40:00,
2013-03-28 11:45:00,56.5,56.5,30.42,NW,315,4.0,12.0,0,0.00,,,0.00,meteohub,2013-03-28 15:45:00,
2013-03-28 11:50:00,56.7,56.7,30.42,NW,315,2.0,12.0,0,0.00,,,0.00,meteohub,2013-03-28 15:50:00,
2013-03-28 11:55:00,57.9,57.9,30.42,East,90,2.0,10.0,0,0.00,,,0.00,meteohub,2013-03-28 15:55:00,
2013-03-28 12:00:00,57.9,57.9,30.41,NE,45,4.0,7.0,0,0.00,,,0.00,meteohub,2013-03-28 16:00:00,
2013-03-28 12:06:00,57.9,57.9,30.41,NE,45,4.0,7.0,0,0.00,,,0.00,meteohub,2013-03-28 16:06:00,
2013-03-28 12:11:00,59.5,59.5,30.40,South,180,4.0,7.0,0,0.00,,,0.00,meteohub,2013-03-28 16:11:00,
2013-03-28 12:16:00,59.5,59.5,30.40,NE,45,4.0,6.0,0,0.00,,,0.00,meteohub,2013-03-28 16:16:00,
2013-03-28 12:21:00,59.5,59.5,30.40,SW,225,8.0,8.0,0,0.00,,,0.00,meteohub,2013-03-28 16:21:00,
2013-03-28 12:26:00,59.7,59.7,30.40,WSW,248,6.0,8.0,0,0.00,,,0.00,meteohub,2013-03-28 16:26:00,
2013-03-28 12:31:00,60.3,60.3,30.40,South,180,8.0,8.0,0,0.00,,,0.00,meteohub,2013-03-28 16:31:00,
2013-03-28 12:37:00,59.9,59.9,30.39,West,270,4.0,9.0,0,0.00,,,0.00,meteohub,2013-03-28 16:37:00,
2013-03-28 12:42:00,59.2,59.2,30.40,West,270,5.0,9.0,0,0.00,,,0.00,meteohub,2013-03-28 16:42:00,
2013-03-28 12:47:00,59.7,59.7,30.39,West,270,4.0,10.0,0,0.00,,,0.00,meteohub,2013-03-28 16:47:00,
2013-03-28 12:52:00,61.2,61.2,30.38,NW,315,5.0,10.0,0,0.00,,,0.00,meteohub,2013-03-28 16:52:00,
2013-03-28 12:57:00,61.0,61.0,30.39,NW,315,8.0,10.0,0,0.00,,,0.00,meteohub,2013-03-28 16:57:00,
2013-03-28 13:02:00,61.0,61.0,30.38,North,0,4.0,11.0,0,0.00,,,0.00,meteohub,2013-03-28 17:02:00,
2013-03-28 13:07:00,61.0,61.0,30.38,North,0,4.0,11.0,0,0.00,,,0.00,meteohub,2013-03-28 17:07:00,
2013-03-28 13:12:00,61.2,61.2,30.38,West,270,5.0,11.0,0,0.00,,,0.00,meteohub,2013-03-28 17:12:00,
2013-03-28 13:17:00,60.8,60.8,30.38,West,270,8.0,8.0,0,0.00,,,0.00,meteohub,2013-03-28 17:17:00,
2013-03-28 13:22:00,61.0,61.0,30.38,West,270,7.0,8.0,0,0.00,,,0.00,meteohub,2013-03-28 17:22:00,
2013-03-28 13:27:00,60.4,60.4,30.38,NW,315,8.0,8.0,0,0.00,,,0.00,meteohub,2013-03-28 17:27:00,
2013-03-28 13:32:00,59.4,59.4,30.38,SW,225,12.0,12.0,0,0.00,,,0.00,meteohub,2013-03-28 17:32:00,
2013-03-28 13:37:00,60.3,60.3,30.38,West,270,4.0,12.0,0,0.00,,,0.00,meteohub,2013-03-28 17:37:00,
2013-03-28 13:42:00,61.2,61.2,30.37,West,270,6.0,12.0,0,0.00,,,0.00,meteohub,2013-03-28 17:42:00,
2013-03-28 13:47:00,61.9,61.9,30.37,North,0,6.0,12.0,0,0.00,,,0.00,meteohub,2013-03-28 17:47:00,
2013-03-28 13:52:00,62.2,62.2,30.37,West,270,8.0,8.0,0,0.00,,,0.00,meteohub,2013-03-28 17:52:00,
2013-03-28 13:57:00,61.3,61.3,30.37,West,270,7.0,9.0,0,0.00,,,0.00,meteohub,2013-03-28 17:57:00,
2013-03-28 14:02:00,60.8,60.8,30.36,West,270,5.0,9.0,0,0.00,,,0.00,meteohub,2013-03-28 18:02:00,
2013-03-28 14:07:00,61.2,61.2,30.37,NW,315,7.0,9.0,0,0.00,,,0.00,meteohub,2013-03-28 18:07:00,
2013-03-28 14:13:00,61.5,61.5,30.36,SW,225,8.0,9.0,0,0.00,,,0.00,meteohub,2013-03-28 18:13:00,
2013-03-28 14:18:00,61.5,61.5,30.36,West,270,4.0,9.0,0,0.00,,,0.00,meteohub,2013-03-28 18:18:00,
2013-03-28 14:23:00,61.5,61.5,30.36,West,270,9.0,9.0,0,0.00,,,0.00,meteohub,2013-03-28 18:23:00,
2013-03-28 14:28:00,61.0,61.0,30.36,SE,135,4.0,9.0,0,0.00,,,0.00,meteohub,2013-03-28 18:28:00,
2013-03-28 14:33:00,61.0,61.0,30.35,NW,315,8.0,9.0,0,0.00,,,0.00,meteohub,2013-03-28 18:33:00,
2013-03-28 14:38:00,60.6,60.6,30.35,West,270,12.0,12.0,0,0.00,,,0.00,meteohub,2013-03-28 18:38:00,
2013-03-28 14:43:00,60.8,60.8,30.35,North,0,5.0,12.0,0,0.00,,,0.00,meteohub,2013-03-28 18:43:00,
2013-03-28 14:48:00,61.0,61.0,30.35,West,270,4.0,12.0,0,0.00,,,0.00,meteohub,2013-03-28 18:48:00,
2013-03-28 14:53:00,61.5,61.5,30.34,SE,135,4.0,12.0,0,0.00,,,0.00,meteohub,2013-03-28 18:53:00,
2013-03-28 14:58:00,61.7,61.7,30.34,WSW,248,8.0,8.0,0,0.00,,,0.00,meteohub,2013-03-28 18:58:00,
2013-03-28 15:03:00,61.3,61.3,30.34,NW,315,15.0,15.0,0,0.00,,,0.00,meteohub,2013-03-28 19:03:00,
2013-03-28 15:08:00,60.8,60.8,30.34,North,0,11.0,15.0,0,0.00,,,0.00,meteohub,2013-03-28 19:08:00,
2013-03-28 15:13:00,60.3,60.3,30.34,NW,315,5.0,15.0,0,0.00,,,0.00,meteohub,2013-03-28 19:13:00,
2013-03-28 15:18:00,60.6,60.6,30.33,NW,315,8.0,15.0,0,0.00,,,0.00,meteohub,2013-03-28 19:18:00,
2013-03-28 15:23:00,61.3,61.3,30.33,West,270,12.0,15.0,0,0.00,,,0.00,meteohub,2013-03-28 19:23:00,
2013-03-28 15:28:00,61.3,61.3,30.32,North,0,11.0,12.0,0,0.00,,,0.00,meteohub,2013-03-28 19:28:00,
2013-03-28 15:33:00,61.5,61.5,30.32,West,270,2.0,12.0,0,0.00,,,0.00,meteohub,2013-03-28 19:33:00,
2013-03-28 15:38:00,61.7,61.7,30.32,West,270,5.0,12.0,0,0.00,,,0.00,meteohub,2013-03-28 19:38:00,
2013-03-28 15:44:00,61.9,61.9,30.31,East,90,6.0,11.0,0,0.00,,,0.00,meteohub,2013-03-28 19:44:00,
2013-03-28 15:49:00,61.5,61.5,30.32,South,180,10.0,10.0,0,0.00,,,0.00,meteohub,2013-03-28 19:49:00,
2013-03-28 15:54:00,61.5,61.5,30.31,WNW,293,4.0,9.0,0,0.00,,,0.00,meteohub,2013-03-28 19:54:00,
2013-03-28 15:59:00,61.3,61.3,30.31,NW,315,10.0,10.0,0,0.00,,,0.00,meteohub,2013-03-28 19:59:00,
2013-03-28 16:04:00,61.3,61.3,30.31,NW,315,10.0,10.0,0,0.00,,,0.00,meteohub,2013-03-28 20:04:00,
2013-03-28 16:09:00,60.4,60.4,30.31,West,270,12.0,12.0,0,0.00,,,0.00,meteohub,2013-03-28 20:09:00,
2013-03-28 16:14:00,60.4,60.4,30.31,NE,45,8.0,10.0,0,0.00,,,0.00,meteohub,2013-03-28 20:14:00,
2013-03-28 16:19:00,60.8,60.8,30.31,NW,315,7.0,15.0,0,0.00,,,0.00,meteohub,2013-03-28 20:19:00,
2013-03-28 16:24:00,61.3,61.3,30.31,South,180,7.0,15.0,0,0.00,,,0.00,meteohub,2013-03-28 20:24:00,
2013-03-28 16:29:00,61.5,61.5,30.31,North,0,9.0,13.0,0,0.00,,,0.00,meteohub,2013-03-28 20:29:00,
2013-03-28 16:35:00,61.7,61.7,30.31,NW,315,9.0,13.0,0,0.00,,,0.00,meteohub,2013-03-28 20:35:00,
2013-03-28 16:40:00,61.9,61.9,30.30,NW,315,11.0,13.0,0,0.00,,,0.00,meteohub,2013-03-28 20:40:00,
2013-03-28 16:45:00,61.3,61.3,30.31,SW,225,4.0,12.0,0,0.00,,,0.00,meteohub,2013-03-28 20:45:00,
2013-03-28 16:50:00,61.3,61.3,30.31,West,270,8.0,17.0,0,0.00,,,0.00,meteohub,2013-03-28 20:50:00,
2013-03-28 16:55:00,61.3,61.3,30.31,WSW,248,13.0,17.0,0,0.00,,,0.00,meteohub,2013-03-28 20:55:00,
2013-03-28 17:00:00,61.0,61.0,30.31,SW,225,8.0,17.0,0,0.00,,,0.00,meteohub,2013-03-28 21:00:00,
2013-03-28 17:05:00,61.0,61.0,30.31,SW,225,8.0,13.0,0,0.00,,,0.00,meteohub,2013-03-28 21:05:00,
2013-03-28 17:10:00,61.0,61.0,30.32,East,90,8.0,13.0,0,0.00,,,0.00,meteohub,2013-03-28 21:10:00,
2013-03-28 17:15:00,61.0,61.0,30.32,NW,315,5.0,16.0,0,0.00,,,0.00,meteohub,2013-03-28 21:15:00,
2013-03-28 17:20:00,61.0,61.0,30.32,West,270,4.0,16.0,0,0.00,,,0.00,meteohub,2013-03-28 21:20:00,
2013-03-28 17:25:00,61.3,61.3,30.32,NW,315,4.0,16.0,0,0.00,,,0.00,meteohub,2013-03-28 21:25:00,
2013-03-28 17:31:00,61.0,61.0,30.32,NW,315,6.0,7.0,0,0.00,,,0.00,meteohub,2013-03-28 21:31:00,
2013-03-28 17:36:00,60.8,60.8,30.32,NW,315,4.0,7.0,0,0.00,,,0.00,meteohub,2013-03-28 21:36:00,
2013-03-28 17:41:00,60.6,60.6,30.32,SE,135,3.0,10.0,0,0.00,,,0.00,meteohub,2013-03-28 21:41:00,
2013-03-28 17:46:00,60.6,60.6,30.32,West,270,3.0,10.0,0,0.00,,,0.00,meteohub,2013-03-28 21:46:00,
2013-03-28 17:51:00,61.0,61.0,30.32,NW,315,4.0,10.0,0,0.00,,,0.00,meteohub,2013-03-28 21:51:00,
2013-03-28 17:56:00,61.0,61.0,30.32,NW,315,9.0,9.0,0,0.00,,,0.00,meteohub,2013-03-28 21:56:00,
2013-03-28 18:01:00,60.6,60.6,30.32,WSW,248,4.0,9.0,0,0.00,,,0.00,meteohub,2013-03-28 22:01:00,
2013-03-28 18:06:00,60.6,60.6,30.32,WSW,248,4.0,9.0,0,0.00,,,0.00,meteohub,2013-03-28 22:06:00,
2013-03-28 18:11:00,61.3,61.3,30.32,NE,45,3.0,9.0,0,0.00,,,0.00,meteohub,2013-03-28 22:11:00,
2013-03-28 18:17:00,61.0,61.0,30.32,West,270,5.0,8.0,0,0.00,,,0.00,meteohub,2013-03-28 22:17:00,
2013-03-28 18:22:00,60.6,60.6,30.32,SE,135,3.0,8.0,0,0.00,,,0.00,meteohub,2013-03-28 22:22:00,
2013-03-28 18:27:00,59.9,59.9,30.32,NW,315,2.0,8.0,0,0.00,,,0.00,meteohub,2013-03-28 22:27:00,
2013-03-28 18:32:00,59.9,59.9,30.32,NW,315,3.0,8.0,0,0.00,,,0.00,meteohub,2013-03-28 22:32:00,
2013-03-28 18:37:00,59.9,59.9,30.32,NW,315,4.0,7.0,0,0.00,,,0.00,meteohub,2013-03-28 22:37:00,
2013-03-28 18:42:00,59.4,59.4,30.32,North,0,5.0,8.0,0,0.00,,,0.00,meteohub,2013-03-28 22:42:00,
2013-03-28 18:47:00,59.0,59.0,30.32,NW,315,0.0,11.0,0,0.00,,,0.00,meteohub,2013-03-28 22:47:00,
2013-03-28 18:52:00,58.5,58.5,30.33,East,90,4.0,11.0,0,0.00,,,0.00,meteohub,2013-03-28 22:52:00,
2013-03-28 18:57:00,57.9,57.9,30.34,NE,45,4.0,11.0,0,0.00,,,0.00,meteohub,2013-03-28 22:57:00,
2013-03-28 19:02:00,57.7,57.7,30.33,North,0,3.0,8.0,0,0.00,,,0.00,meteohub,2013-03-28 23:02:00,
2013-03-28 19:07:00,57.0,57.0,30.34,NW,315,3.0,7.0,0,0.00,,,0.00,meteohub,2013-03-28 23:07:00,
2013-03-28 19:12:00,56.7,56.7,30.34,SW,225,6.0,6.0,0,0.00,,,0.00,meteohub,2013-03-28 23:12:00,
2013-03-28 19:18:00,56.5,56.5,30.34,SW,225,2.0,6.0,0,0.00,,,0.00,meteohub,2013-03-28 23:18:00,
2013-03-28 19:23:00,55.9,55.9,30.34,SW,225,2.0,6.0,0,0.00,,,0.00,meteohub,2013-03-28 23:23:00,
2013-03-28 19:28:00,55.4,55.4,30.34,NE,45,2.0,6.0,0,0.00,,,0.00,meteohub,2013-03-28 23:28:00,
2013-03-28 19:33:00,55.0,55.0,30.34,South,180,2.0,4.0,0,0.00,,,0.00,meteohub,2013-03-28 23:33:00,
2013-03-28 19:38:00,54.5,54.5,30.35,NW,315,0.0,4.0,0,0.00,,,0.00,meteohub,2013-03-28 23:38:00,
2013-03-28 19:43:00,53.6,53.6,30.35,NW,315,0.0,4.0,0,0.00,,,0.00,meteohub,2013-03-28 23:43:00,
2013-03-28 19:48:00,52.9,52.9,30.35,NW,315,0.0,4.0,0,0.00,,,0.00,meteohub,2013-03-28 23:48:00,
2013-03-28 19:53:00,52.0,52.0,30.35,NW,315,0.0,2.0,0,0.00,,,0.00,meteohub,2013-03-28 23:53:00,
2013-03-28 19:58:00,51.3,51.3,30.36,NW,315,2.0,0.0,0,0.00,,,0.00,meteohub,2013-03-28 23:58:00,
2013-03-28 20:03:00,51.1,51.1,30.36,NW,315,0.0,2.0,0,0.00,,,0.00,meteohub,2013-03-29 00:03:00,
2013-03-28 20:08:00,49.6,49.6,30.36,NW,315,2.0,2.0,0,0.00,,,0.00,meteohub,2013-03-29 00:08:00,
2013-03-28 20:13:00,48.9,48.9,30.37,NW,315,0.0,2.0,0,0.00,,,0.00,meteohub,2013-03-29 00:13:00,
2013-03-28 20:18:00,48.0,48.0,30.38,NW,315,0.0,2.0,0,0.00,,,0.00,meteohub,2013-03-29 00:18:00,
2013-03-28 20:23:00,47.3,47.3,30.37,NW,315,0.0,2.0,0,0.00,,,0.00,meteohub,2013-03-29 00:23:00,
2013-03-28 20:28:00,46.6,-6.5,30.38,NW,315,0.0,2.0,10,0.00,,,0.00,meteohub,2013-03-29 00:28:00,
2013-03-28 20:33:00,45.9,-7.1,30.38,NW,315,0.0,1.0,10,0.00,,,0.00,meteohub,2013-03-29 00:33:00,
2013-03-28 20:39:00,45.1,-3.8,30.39,NW,315,0.0,1.0,12,0.00,,,0.00,meteohub,2013-03-29 00:39:00,
2013-03-28 20:44:00,44.8,0.7,30.38,NW,315,0.0,1.0,15,0.00,,,0.00,meteohub,2013-03-29 00:44:00,
2013-03-28 20:49:00,44.2,1.6,30.39,NW,315,0.0,0.0,16,0.00,,,0.00,meteohub,2013-03-29 00:49:00,
2013-03-28 20:54:00,43.7,3.4,30.39,NW,315,0.0,0.0,18,0.00,,,0.00,meteohub,2013-03-29 00:54:00,
2013-03-28 20:59:00,43.3,4.3,30.39,NW,315,1.0,2.0,19,0.00,,,0.00,meteohub,2013-03-29 00:59:00,
2013-03-28 21:04:00,43.0,5.2,30.40,NW,315,0.0,2.0,20,0.00,,,0.00,meteohub,2013-03-29 01:04:00,
2013-03-28 21:09:00,42.4,4.6,30.40,NW,315,0.0,2.0,20,0.00,,,0.00,meteohub,2013-03-29 01:09:00,
2013-03-28 21:15:00,41.9,6.3,30.39,NW,315,0.0,2.0,22,0.00,,,0.00,meteohub,2013-03-29 01:15:00,
2013-03-28 21:20:00,41.9,6.3,30.40,NW,315,0.0,2.0,22,0.00,,,0.00,meteohub,2013-03-29 01:20:00,
2013-03-28 21:25:00,41.4,6.8,30.40,NW,315,0.0,0.0,23,0.00,,,0.00,meteohub,2013-03-29 01:25:00,
2013-03-28 21:30:00,41.0,8.4,30.40,NW,315,0.0,0.0,25,0.00,,,0.00,meteohub,2013-03-29 01:30:00,
2013-03-28 21:35:00,40.6,8.1,30.41,NW,315,0.0,0.0,25,0.00,,,0.00,meteohub,2013-03-29 01:35:00,
2013-03-28 21:40:00,40.3,6.8,30.41,NW,315,0.0,0.0,24,0.00,,,0.00,meteohub,2013-03-29 01:40:00,
2013-03-28 21:45:00,39.9,6.6,30.41,NW,315,0.0,0.0,24,0.00,,,0.00,meteohub,2013-03-29 01:45:00,
2013-03-28 21:50:00,39.6,8.1,30.41,NW,315,0.0,0.0,26,0.00,,,0.00,meteohub,2013-03-29 01:50:00,
2013-03-28 21:55:00,39.0,8.4,30.41,NW,315,0.0,0.0,27,0.00,,,0.00,meteohub,2013-03-29 01:55:00,
2013-03-28 22:00:00,38.8,9.0,30.42,NW,315,0.0,0.0,28,0.00,,,0.00,meteohub,2013-03-29 02:00:00,
2013-03-28 22:05:00,38.8,9.0,30.42,NW,315,0.0,0.0,28,0.00,,,0.00,meteohub,2013-03-29 02:05:00,
2013-03-28 22:10:00,38.1,9.1,30.42,NW,315,0.0,0.0,29,0.00,,,0.00,meteohub,2013-03-29 02:10:00,
2013-03-28 22:15:00,37.9,9.9,30.43,NW,315,0.0,0.0,30,0.00,,,0.00,meteohub,2013-03-29 02:15:00,
2013-03-28 22:20:00,37.8,10.9,30.43,NW,315,0.0,0.0,32,0.00,,,0.00,meteohub,2013-03-29 02:20:00,
2013-03-28 22:25:00,37.8,10.9,30.43,NW,315,0.0,0.0,32,0.00,,,0.00,meteohub,2013-03-29 02:25:00,
2013-03-28 22:30:00,37.4,10.6,30.44,NW,315,0.0,0.0,32,0.00,,,0.00,meteohub,2013-03-29 02:30:00,
2013-03-28 22:35:00,37.2,10.4,30.44,NW,315,0.0,0.0,32,0.00,,,0.00,meteohub,2013-03-29 02:35:00,
2013-03-28 22:40:00,37.0,10.2,30.43,NW,315,0.0,0.0,32,0.00,,,0.00,meteohub,2013-03-29 02:40:00,
2013-03-28 22:45:00,36.9,10.8,30.44,NW,315,0.0,0.0,33,0.00,,,0.00,meteohub,2013-03-29 02:45:00,
2013-03-28 22:50:00,36.7,10.6,30.45,NW,315,0.0,0.0,33,0.00,,,0.00,meteohub,2013-03-29 02:50:00,
2013-03-28 22:55:00,36.3,10.4,30.44,NW,315,0.0,0.0,33,0.00,,,0.00,meteohub,2013-03-29 02:55:00,
2013-03-28 23:01:00,36.1,10.8,30.45,NW,315,0.0,0.0,34,0.00,,,0.00,meteohub,2013-03-29 03:01:00,
2013-03-28 23:06:00,36.0,10.6,30.45,NW,315,0.0,0.0,34,0.00,,,0.00,meteohub,2013-03-29 03:06:00,
2013-03-28 23:11:00,35.8,11.1,30.45,NW,315,0.0,0.0,35,0.00,,,0.00,meteohub,2013-03-29 03:11:00,
2013-03-28 23:16:00,35.6,11.7,30.45,NW,315,0.0,0.0,36,0.00,,,0.00,meteohub,2013-03-29 03:16:00,
2013-03-28 23:21:00,35.4,11.5,30.45,NW,315,0.0,0.0,36,0.00,,,0.00,meteohub,2013-03-29 03:21:00,
2013-03-28 23:26:00,35.2,10.8,30.45,NW,315,0.0,0.0,35,0.00,,,0.00,meteohub,2013-03-29 03:26:00,
2013-03-28 23:31:00,34.9,10.4,30.45,NW,315,0.0,0.0,35,0.00,,,0.00,meteohub,2013-03-29 03:31:00,
2013-03-28 23:36:00,34.7,10.8,30.45,NW,315,0.0,0.0,36,0.00,,,0.00,meteohub,2013-03-29 03:36:00,
2013-03-28 23:41:00,34.7,11.5,30.46,NW,315,0.0,0.0,37,0.00,,,0.00,meteohub,2013-03-29 03:41:00,
2013-03-28 23:47:00,34.5,10.6,30.46,NW,315,0.0,0.0,36,0.00,,,0.00,meteohub,2013-03-29 03:47:00,
2013-03-28 23:52:00,34.3,11.1,30.45,NW,315,0.0,0.0,37,0.00,,,0.00,meteohub,2013-03-29 03:52:00,
2013-03-28 23:57:00,34.2,10.9,30.45,NW,315,0.0,0.0,37,0.00,,,0.00,meteohub,2013-03-29 03:57:00,